User: anonymous   Login
Location: Unspecified
(0.0000°N, 0.0000°E)
Time: 08:10:49
(UTC+00:00)
Language:

USA 229 - Orbit

View from above orbital plane
View from above orbital plane
View from above satellite
View from above satellite

Ground track
Ground track

The orbit data is extracted from the following two-line orbital elements,

1 37386U 11014A   16334.70971341 0.00000000  00000-0  00000-0 0    06
2 37386  63.4330 163.8630 0047328   9.0429 350.9571 13.40719856    07
Epoch (UTC): 29 November 2016 17:01:59
Eccentricity: 0.0047328
inclination: 63.4330°
perigee height: 1071 km
apogee height: 1142 km
right ascension of ascending node: 163.8630°
argument of perigee: 9.0429°
revolutions per day: 13.40719856
mean anomaly at epoch: 350.9571°
orbit number at epoch: 0

The dashed part of the orbit path shows where the satellite is in the earth's shadow,  

DLR